Home > Weather > Davos > Past weeks

Flag for Switzerland Past Weather in Davos, Graubünden, Switzerland — Yesterday and Last 2 Weeks

Now
60 °F

Cool.


Feels Like: 60 °F
Forecast: 44 / 71 °F
Wind: 1 mph from Southwest

Location: Chur

Current Time: Jul 28, 2016 at 4:53:54 AM

Latest Report: Jul 28, 2016 at 4:00 AM


Visibility: N/A

Pressure: 30.11 "Hg (25.09 "Hg at 1540m altitude)

Humidity: 97%

Dew Point: 59 °F

Location of DavosLocation

Past Weather in Davos — Graph

°F

Davos Temperature Yesterday

Maximum temperature yesterday: 75 °F (at 12:00 PM)
Minimum temperature yesterday: 62 °F (at 6:00 AM)
Average temperature yesterday: 67 °F

High & Low Weather Summary for the Past Weeks

 TemperatureHumidityPressure
High89 °F (Jul 20, 4:00 PM)98% (Jul 28, 3:00 AM)30.39 "Hg (Jul 28, 3:00 AM)
Low47 °F (Jul 16, 6:00 AM)33% (Jul 20, 3:00 PM)29.88 "Hg (Jul 20, 6:00 PM)
Average66 °F74%30.10 "Hg
* Reported Jul 13 3:00 AM — Jul 28 3:00 AM, Davos, Weather by CustomWeather, © 2016

Note: Actual official high and low records may vary slightly from our data, if they occured in-between our weather recording intervals... More about our weather records

Advertising

Davos Weather History for the Previous 24 Hours

Scroll right to see more
 ConditionsComfort  
Time TempWeatherWind HumidityBarometerVisibility
3:00 AM
Thu, Jul 28
60 °FCool.1 mph98%30.11 "HgN/A
2:00 AM61 °FCool.1 mph96%30.12 "HgN/A
1:00 AM61 °FCool.2 mph96%30.12 "HgN/A
12:00 AM62 °FCool.3 mph93%30.11 "HgN/A
11:00 PM
Wed, Jul 27
64 °FMild.3 mph95%30.11 "HgN/A
10:00 PM64 °FMild.2 mph96%30.11 "HgN/A
9:00 PM66 °FMild.2 mph90%30.07 "HgN/A
8:00 PM66 °FFog.3 mph88%30.03 "Hg9 mi
7:00 PM67 °FMild.7 mph85%30.03 "HgN/A
6:00 PM71 °FMild.9 mph72%30.01 "HgN/A
5:00 PM69 °FOvercast.8 mph76%30.01 "Hg9 mi
4:00 PM73 °FMild.12 mph68%29.98 "HgN/A
3:00 PM73 °FMild.9 mph65%29.97 "HgN/A
2:00 PM73 °FOvercast.13 mph67%29.98 "Hg9 mi
1:00 PM74 °FMild.12 mph66%29.99 "HgN/A
12:00 PM75 °FMild.12 mph69%29.99 "HgN/A
11:00 AM72 °FPartly sunny.7 mph70%30.02 "Hg9 mi
10:00 AM68 °FMild.5 mph77%30.05 "HgN/A
9:00 AM67 °FMild.2 mph78%30.06 "HgN/A
8:00 AM65 °FFog.1 mph85%30.07 "Hg7 mi
7:00 AM63 °FMild.No wind92%30.08 "HgN/A
6:00 AM62 °FCool.1 mph93%30.08 "HgN/A
5:00 AM62 °FPassing clouds.No wind93%30.07 "Hg9 mi
4:00 AM64 °FMild.1 mph89%30.08 "HgN/A
Weather by CustomWeather, © 2016

See weather overviewHow to use our weather pages